| time (UTC) | temp C | wind direction | speed KPH | gust KPH | rain 1hr cm | rain 24hr cm | rain mn cm | humidity % | barometer mb |
| 20260503213218 | 13 | 228 | 20.9 | 24.1 | 0.00 | 0.00 | 0.00 | 86 | 1012.8 |
| 20260503212949 | 13 | 235 | 20.9 | 24.1 | 0.00 | 0.00 | 0.00 | 8 | 1013.3 |
| 20260503212618 | 13 | 234 | 20.9 | 22.5 | 0.00 | 0.00 | 0.00 | 85 | 1013.4 |
| 20260503212018 | 13 | 231 | 19.3 | 22.5 | 0.00 | 0.00 | 0.00 | 85 | 1013.1 |
| 20260503211949 | 13 | 234 | 17.7 | 22.5 | 0.00 | 0.00 | 0.00 | 8 | 1013.1 |
| 20260503211425 | 13 | 234 | 20.9 | 22.5 | 0.00 | 0.00 | 0.00 | 85 | 1013.3 |
| 20260503210949 | 13 | 234 | 17.7 | 20.9 | 0.00 | 0.00 | 0.00 | 8 | 1013.1 |
| 20260503210825 | 13 | 235 | 19.3 | 22.5 | 0.00 | 0.00 | 0.00 | 85 | 1013.2 |
| 20260503210219 | 13 | 230 | 20.9 | 25.7 | 0.00 | 0.00 | 0.00 | 85 | 1013.1 |
| 20260503205949 | 12 | 229 | 19.3 | 24.1 | 0.00 | 0.00 | 0.00 | 8 | 1013.0 |
| 20260503205619 | 13 | 230 | 22.5 | 25.7 | 0.00 | 0.00 | 0.00 | 85 | 1013.1 |
| 20260503205019 | 13 | 232 | 19.3 | 25.7 | 0.00 | 0.00 | 0.00 | 85 | 1013.2 |
| 20260503204949 | 13 | 229 | 19.3 | 22.5 | 0.00 | 0.00 | 0.00 | 8 | 1013.1 |
| 20260503204425 | 13 | 229 | 17.7 | 20.9 | 0.00 | 0.00 | 0.00 | 85 | 1013.3 |
| 20260503203949 | 13 | 232 | 16.1 | 19.3 | 0.00 | 0.00 | 0.00 | 8 | 1013.2 |
| 20260503203825 | 13 | 233 | 16.1 | 19.3 | 0.00 | 0.00 | 0.00 | 85 | 1013.3 |
| 20260503203237 | 13 | 227 | 20.9 | 25.7 | 0.00 | 0.00 | 0.00 | 84 | 1013.1 |
| 20260503202949 | 12 | 228 | 19.3 | 22.5 | 0.00 | 0.00 | 0.00 | 8 | 1013.1 |
| 20260503202620 | 13 | 227 | 19.3 | 22.5 | 0.00 | 0.00 | 0.00 | 84 | 1013.2 |
| 20260503202020 | 13 | 229 | 17.7 | 22.5 | 0.00 | 0.00 | 0.00 | 84 | 1013.3 |
| 20260503201949 | 12 | 230 | 16.1 | 19.3 | 0.00 | 0.00 | 0.00 | 8 | 1013.1 |
| 20260503201419 | 13 | 232 | 16.1 | 17.7 | 0.00 | 0.00 | 0.00 | 85 | 1013.3 |
| 20260503200949 | 12 | 228 | 14.5 | 19.3 | 0.00 | 0.00 | 0.00 | 8 | 1013.3 |
| 20260503200820 | 13 | 229 | 16.1 | 19.3 | 0.00 | 0.00 | 0.00 | 85 | 1013.4 |
| 20260503200220 | 13 | 227 | 17.7 | 22.5 | 0.00 | 0.00 | 0.00 | 85 | 1013.6 |
| 20260503195949 | 12 | 227 | 17.7 | 22.5 | 0.00 | 0.00 | 0.00 | 8 | 1013.5 |
| 20260503195640 | 13 | 228 | 16.1 | 20.9 | 0.00 | 0.00 | 0.00 | 86 | 1013.6 |
| 20260503195017 | 13 | 224 | 14.5 | 20.9 | 0.00 | 0.00 | 0.00 | 86 | 1013.5 |
| 20260503194417 | 13 | 225 | 16.1 | 20.9 | 0.00 | 0.00 | 0.00 | 85 | 1013.6 |
| 20260503193949 | 12 | 219 | 16.1 | 20.9 | 0.00 | 0.00 | 0.00 | 8 | 1013.5 |
| 20260503193817 | 13 | 220 | 17.7 | 20.9 | 0.00 | 0.00 | 0.00 | 86 | 1013.6 |
| 20260503193241 | 13 | 226 | 19.3 | 24.1 | 0.00 | 0.00 | 0.00 | 87 | 1013.6 |
| 20260503192949 | 12 | 222 | 19.3 | 22.5 | 0.00 | 0.00 | 0.00 | 8 | 1013.4 |
| 20260503192638 | 13 | 219 | 20.9 | 22.5 | 0.00 | 0.00 | 0.00 | 87 | 1013.5 |
| 20260503192017 | 13 | 223 | 19.3 | 24.1 | 0.00 | 0.00 | 0.00 | 87 | 1013.3 |
| 20260503191949 | 13 | 221 | 19.3 | 22.5 | 0.00 | 0.00 | 0.00 | 8 | 1013.2 |
| 20260503191421 | 13 | 216 | 17.7 | 20.9 | 0.00 | 0.00 | 0.00 | 87 | 1013.4 |
| 20260503190949 | 12 | 218 | 19.3 | 22.5 | 0.00 | 0.00 | 0.00 | 8 | 1013.5 |
| 20260503190821 | 13 | 218 | 19.3 | 22.5 | 0.00 | 0.00 | 0.00 | 88 | 1013.6 |
| 20260503190218 | 12 | 225 | 16.1 | 20.9 | 0.00 | 0.00 | 0.00 | 88 | 1013.7 |
| 20260503185949 | 12 | 221 | 19.3 | 22.5 | 0.00 | 0.00 | 0.00 | 8 | 1013.6 |
| 20260503185618 | 13 | 224 | 20.9 | 24.1 | 0.00 | 0.00 | 0.00 | 88 | 1013.6 |
| 20260503185018 | 12 | 224 | 17.7 | 22.5 | 0.00 | 0.00 | 0.00 | 89 | 1013.7 |
| 20260503184949 | 12 | 223 | 17.7 | 24.1 | 0.00 | 0.00 | 0.00 | 8 | 1013.6 |
| 20260503184418 | 12 | 223 | 17.7 | 20.9 | 0.00 | 0.00 | 0.00 | 90 | 1013.7 |
| 20260503183949 | 12 | 227 | 16.1 | 17.7 | 0.00 | 0.00 | 0.00 | 8 | 1013.7 |
| 20260503183818 | 12 | 228 | 16.1 | 19.3 | 0.00 | 0.00 | 0.00 | 90 | 1013.8 |
| 20260503183239 | 12 | 230 | 14.5 | 17.7 | 0.00 | 0.00 | 0.00 | 90 | 1013.7 |
| 20260503182949 | 12 | 230 | 14.5 | 17.7 | 0.00 | 0.00 | 0.00 | 9 | 1013.6 |
| 20260503182706 | 12 | 232 | 14.5 | 16.1 | 0.00 | 0.00 | 0.00 | 90 | 1013.7 |
| 20260503182107 | 12 | 231 | 12.9 | 16.1 | 0.00 | 0.00 | 0.00 | 91 | 1013.5 |
| 20260503181949 | 12 | 231 | 11.3 | 16.1 | 0.00 | 0.00 | 0.00 | 9 | 1013.1 |
| 20260503181422 | 12 | 229 | 12.9 | 14.5 | 0.00 | 0.00 | 0.00 | 91 | 1013.5 |
| 20260503180949 | 12 | 236 | 11.3 | 14.5 | 0.00 | 0.00 | 0.00 | 9 | 1012.9 |
| 20260503180819 | 12 | 237 | 12.9 | 16.1 | 0.00 | 0.00 | 0.00 | 91 | 1013.1 |
| 20260503180219 | 12 | 253 | 12.9 | 16.1 | 0.00 | 0.00 | 0.00 | 91 | 1013.7 |
| 20260503175949 | 12 | 250 | 9.7 | 12.9 | 0.00 | 0.00 | 0.00 | 9 | 1013.0 |
| 20260503175619 | 12 | 244 | 11.3 | 14.5 | 0.00 | 0.00 | 0.00 | 91 | 1012.9 |
| 20260503175019 | 12 | 252 | 9.7 | 14.5 | 0.00 | 0.00 | 0.00 | 91 | 1013.4 |
| 20260503174949 | 11 | 254 | 9.7 | 11.3 | 0.00 | 0.00 | 0.00 | 9 | 1013.4 |
| 20260503174439 | 12 | 259 | 9.7 | 11.3 | 0.00 | 0.00 | 0.00 | 91 | 1013.5 |
| 20260503173949 | 11 | 254 | 9.7 | 11.3 | 0.00 | 0.00 | 0.00 | 9 | 1013.3 |
| 20260503173820 | 12 | 255 | 9.7 | 12.9 | 0.00 | 0.00 | 0.00 | 91 | 1013.4 |
| 20260503173225 | 12 | 252 | 9.7 | 12.9 | 0.00 | 0.00 | 0.00 | 92 | 1013.3 |
| 20260503172949 | 11 | 235 | 8.0 | 14.5 | 0.00 | 0.00 | 0.00 | 9 | 1013.0 |
| 20260503172620 | 12 | 246 | 9.7 | 12.9 | 0.00 | 0.00 | 0.00 | 92 | 1013.1 |
| 20260503172016 | 12 | 244 | 9.7 | 12.9 | 0.00 | 0.00 | 0.00 | 92 | 1013.2 |
| 20260503171440 | 12 | 241 | 8.0 | 11.3 | 0.00 | 0.00 | 0.00 | 93 | 1013.2 |
| 20260503170949 | 11 | 232 | 8.0 | 11.3 | 0.00 | 0.00 | 0.00 | 9 | 1013.0 |
| 20260503170820 | 12 | 233 | 8.0 | 12.9 | 0.00 | 0.00 | 0.00 | 93 | 1013.1 |
| 20260503170223 | 12 | 236 | 8.0 | 9.7 | 0.00 | 0.00 | 0.00 | 93 | 1013.2 |
| 20260503150831 | 12 | 195 | 4.8 | 6.4 | 0.00 | 0.00 | 0.00 | 89 | 1013.0 |
| 20260503150231 | 12 | 182 | 3.2 | 8.0 | 0.00 | 0.00 | 0.00 | 89 | 1012.9 |
| 20260503140220 | 12 | 255 | 11.3 | 14.5 | 0.00 | 0.00 | 0.00 | 88 | 1012.2 |
| 20260503130949 | 12 | 272 | 9.7 | 9.7 | 0.00 | 0.00 | 0.00 | 8 | 1011.5 |
| 20260503130821 | 12 | 273 | 9.7 | 11.3 | 0.00 | 0.00 | 0.00 | 88 | 1011.7 |
| 20260503130221 | 12 | 259 | 9.7 | 11.3 | 0.00 | 0.00 | 0.00 | 88 | 1011.5 |
| 20260503120222 | 12 | 276 | 8.0 | 9.7 | 0.00 | 0.00 | 0.00 | 89 | 1011.6 |
| 20260503110817 | 12 | 261 | 12.9 | 14.5 | 0.00 | 0.00 | 0.00 | 88 | 1011.7 |
| 20260503110229 | 12 | 272 | 12.9 | 14.5 | 0.00 | 0.00 | 0.00 | 88 | 1011.6 |
| 20260503100238 | 12 | 279 | 16.1 | 17.7 | 0.00 | 0.00 | 0.00 | 89 | 1011.6 |
| 20260503090219 | 12 | 275 | 14.5 | 17.7 | 0.00 | 0.00 | 0.00 | 89 | 1012.0 |
| 20260503081417 | 12 | 288 | 11.3 | 16.1 | 0.00 | 0.00 | 0.00 | 89 | 1012.6 |
| 20260503080949 | 12 | 288 | 9.7 | 12.9 | 0.00 | 0.00 | 0.00 | 8 | 1012.5 |
| 20260503080838 | 12 | 289 | 9.7 | 14.5 | 0.00 | 0.00 | 0.00 | 89 | 1012.6 |
| 20260503080218 | 12 | 290 | 9.7 | 14.5 | 0.00 | 0.00 | 0.00 | 89 | 1012.7 |
| 20260503072618 | 12 | 295 | 9.7 | 12.9 | 0.00 | 0.00 | 0.00 | 89 | 1012.5 |
| 20260503072019 | 12 | 303 | 11.3 | 14.5 | 0.00 | 0.00 | 0.00 | 89 | 1012.5 |
| 20260503071949 | 12 | 303 | 11.3 | 14.5 | 0.00 | 0.00 | 0.00 | 8 | 1012.4 |
| 20260503071418 | 12 | 308 | 9.7 | 14.5 | 0.00 | 0.00 | 0.00 | 89 | 1012.5 |
| 20260503070950 | 12 | 293 | 8.0 | 12.9 | 0.00 | 0.00 | 0.00 | 8 | 1012.4 |
| 20260503070818 | 12 | 293 | 8.0 | 14.5 | 0.00 | 0.00 | 0.00 | 89 | 1012.5 |
| 20260503070219 | 12 | 290 | 11.3 | 16.1 | 0.00 | 0.00 | 0.00 | 89 | 1012.5 |
| 20260503060219 | 12 | 294 | 9.7 | 14.5 | 0.00 | 0.00 | 0.00 | 89 | 1012.8 |
| 20260503055020 | 12 | 293 | 9.7 | 14.5 | 0.00 | 0.00 | 0.00 | 89 | 1012.9 |
| 20260503054949 | 12 | 291 | 11.3 | 14.5 | 0.00 | 0.00 | 0.00 | 8 | 1012.8 |
| 20260503054417 | 12 | 291 | 11.3 | 14.5 | 0.00 | 0.00 | 0.00 | 89 | 1013.0 |
| 20260503053949 | 12 | 284 | 11.3 | 16.1 | 0.00 | 0.00 | 0.00 | 8 | 1012.9 |
| 20260503053817 | 12 | 285 | 12.9 | 16.1 | 0.00 | 0.00 | 0.00 | 89 | 1013.0 |
| 20260503053217 | 12 | 296 | 11.3 | 14.5 | 0.00 | 0.00 | 0.00 | 89 | 1013.1 |
| 20260503052949 | 12 | 285 | 9.7 | 11.3 | 0.00 | 0.00 | 0.00 | 8 | 1013.0 |
| 20260503052621 | 12 | 285 | 11.3 | 14.5 | 0.00 | 0.00 | 0.00 | 89 | 1013.1 |
| 20260503052020 | 12 | 290 | 11.3 | 16.1 | 0.00 | 0.00 | 0.00 | 89 | 1013.1 |
| 20260503051949 | 12 | 294 | 9.7 | 14.5 | 0.00 | 0.00 | 0.00 | 8 | 1013.0 |
| 20260503051421 | 12 | 288 | 11.3 | 16.1 | 0.00 | 0.00 | 0.00 | 89 | 1013.1 |
| 20260503050949 | 12 | 300 | 8.0 | 12.9 | 0.00 | 0.00 | 0.00 | 8 | 1013.0 |
| 20260503050838 | 12 | 300 | 9.7 | 12.9 | 0.00 | 0.00 | 0.00 | 89 | 1013.1 |
| 20260503050224 | 12 | 296 | 9.7 | 14.5 | 0.00 | 0.00 | 0.00 | 89 | 1013.1 |
| 20260503045949 | 12 | 288 | 11.3 | 14.5 | 0.00 | 0.00 | 0.00 | 8 | 1012.9 |
| 20260503045618 | 12 | 288 | 11.3 | 14.5 | 0.00 | 0.00 | 0.00 | 89 | 1013.1 |
| 20260503045018 | 12 | 292 | 11.3 | 16.1 | 0.00 | 0.00 | 0.00 | 89 | 1013.1 |
| 20260503044949 | 12 | 301 | 11.3 | 16.1 | 0.00 | 0.00 | 0.00 | 8 | 1013.0 |
| 20260503044418 | 12 | 304 | 11.3 | 14.5 | 0.00 | 0.00 | 0.00 | 89 | 1013.1 |
| 20260503043949 | 12 | 295 | 11.3 | 17.7 | 0.00 | 0.00 | 0.00 | 8 | 1012.9 |
| 20260503043818 | 12 | 295 | 11.3 | 17.7 | 0.00 | 0.00 | 0.00 | 89 | 1013.1 |
| 20260503043238 | 12 | 287 | 14.5 | 17.7 | 0.00 | 0.00 | 0.00 | 89 | 1013.0 |
| 20260503042949 | 12 | 297 | 9.7 | 14.5 | 0.00 | 0.00 | 0.00 | 8 | 1012.9 |
| 20260503042633 | 12 | 294 | 12.9 | 16.1 | 0.00 | 0.00 | 0.00 | 89 | 1013.0 |
| 20260503042030 | 12 | 291 | 11.3 | 16.1 | 0.00 | 0.00 | 0.00 | 90 | 1012.9 |
| 20260503041949 | -17 | 276 | 11.3 | 11.3 | 0.00 | 0.00 | 0.00 | 100 | |
| 20260503041422 | 12 | 297 | 11.3 | 14.5 | 0.00 | 0.00 | 0.00 | 90 | 1012.9 |
| 20260503040949 | 12 | 303 | 12.9 | 14.5 | 0.00 | 0.00 | 0.00 | 8 | 1012.8 |
| 20260503040822 | 12 | 304 | 12.9 | 16.1 | 0.00 | 0.00 | 0.00 | 90 | 1012.9 |
| 20260503040231 | 12 | 297 | 12.9 | 16.1 | 0.00 | 0.00 | 0.00 | 90 | 1012.8 |
| 20260503035949 | 12 | 289 | 11.3 | 14.5 | 0.00 | 0.00 | 0.00 | 8 | 1012.7 |
| 20260503035619 | 12 | 291 | 11.3 | 14.5 | 0.00 | 0.00 | 0.00 | 90 | 1012.9 |
| 20260503035019 | 12 | 291 | 12.9 | 17.7 | 0.00 | 0.00 | 0.00 | 90 | 1012.8 |
| 20260503034422 | 12 | 290 | 12.9 | 14.5 | 0.00 | 0.00 | 0.00 | 90 | 1012.7 |
| 20260503033949 | 12 | 286 | 14.5 | 17.7 | 0.00 | 0.00 | 0.00 | 8 | 1012.6 |
| 20260503033819 | 12 | 287 | 14.5 | 17.7 | 0.00 | 0.00 | 0.00 | 90 | 1012.7 |
| 20260503033239 | 12 | 284 | 16.1 | 19.3 | 0.00 | 0.00 | 0.00 | 90 | 1012.6 |
| 20260503032949 | 12 | 289 | 12.9 | 17.7 | 0.00 | 0.00 | 0.00 | 8 | 1012.5 |
| 20260503032619 | 12 | 293 | 11.3 | 14.5 | 0.00 | 0.00 | 0.00 | 89 | 1012.6 |
| 20260503032019 | 12 | 292 | 11.3 | 17.7 | 0.00 | 0.00 | 0.00 | 89 | 1012.5 |
| 20260503031949 | 12 | 298 | 9.7 | 14.5 | 0.00 | 0.00 | 0.00 | 8 | 1012.4 |
| 20260503031420 | 12 | 298 | 12.9 | 19.3 | 0.00 | 0.00 | 0.00 | 89 | 1012.4 |
| 20260503030949 | 12 | 297 | 12.9 | 19.3 | 0.00 | 0.00 | 0.00 | 8 | 1012.2 |
| 20260503030820 | 12 | 298 | 12.9 | 20.9 | 0.00 | 0.00 | 0.00 | 89 | 1012.3 |
| 20260503030220 | 12 | 293 | 11.3 | 16.1 | 0.00 | 0.00 | 0.00 | 89 | 1012.3 |
| 20260503025949 | 12 | 290 | 14.5 | 20.9 | 0.00 | 0.00 | 0.00 | 8 | 1012.1 |
| 20260503025620 | 12 | 287 | 14.5 | 19.3 | 0.00 | 0.00 | 0.00 | 89 | 1012.2 |
| 20260503025017 | 12 | 286 | 16.1 | 20.9 | 0.00 | 0.00 | 0.00 | 89 | 1012.2 |
| 20260503024417 | 12 | 281 | 16.1 | 20.9 | 0.00 | 0.00 | 0.00 | 89 | 1012.3 |
| 20260503023949 | 12 | 287 | 16.1 | 17.7 | 0.00 | 0.00 | 0.00 | 8 | 1012.1 |
| 20260503023817 | 12 | 287 | 16.1 | 19.3 | 0.00 | 0.00 | 0.00 | 89 | 1012.2 |
| 20260503023221 | 12 | 286 | 16.1 | 19.3 | 0.00 | 0.00 | 0.00 | 89 | 1012.3 |
| 20260503023123 | 12 | 284 | 14.5 | 19.3 | 0.00 | 0.00 | 0.00 | 8 | 1012.2 |
| 20260503022949 | 12 | 284 | 14.5 | 19.3 | 0.00 | 0.00 | 0.00 | 8 | 1012.2 |
| 20260503022620 | 12 | 287 | 16.1 | 19.3 | 0.00 | 0.00 | 0.00 | 88 | 1012.3 |
| 20260503022021 | 12 | 286 | 16.1 | 19.3 | 0.00 | 0.00 | 0.00 | 88 | 1012.3 |
| 20260503021949 | 12 | 284 | 14.5 | 17.7 | 0.00 | 0.00 | 0.00 | 8 | 1012.2 |
| 20260503021418 | 12 | 285 | 14.5 | 17.7 | 0.00 | 0.00 | 0.00 | 88 | 1012.3 |
| 20260503020949 | 12 | 283 | 16.1 | 17.7 | 0.00 | 0.00 | 0.00 | 8 | 1012.2 |
| 20260503020818 | 12 | 284 | 16.1 | 19.3 | 0.00 | 0.00 | 0.00 | 88 | 1012.3 |
| 20260503020218 | 12 | 280 | 17.7 | 20.9 | 0.00 | 0.00 | 0.00 | 88 | 1012.4 |
| 20260503015949 | 12 | 280 | 16.1 | 19.3 | 0.00 | 0.00 | 0.00 | 8 | 1012.3 |
| 20260503015618 | 12 | 280 | 17.7 | 20.9 | 0.00 | 0.00 | 0.00 | 88 | 1012.5 |
| 20260503015018 | 12 | 281 | 17.7 | 20.9 | 0.00 | 0.00 | 0.00 | 88 | 1012.5 |
| 20260503014949 | 12 | 277 | 16.1 | 19.3 | 0.00 | 0.00 | 0.00 | 8 | 1012.4 |
| 20260503014421 | 12 | 278 | 17.7 | 20.9 | 0.00 | 0.00 | 0.00 | 88 | 1012.5 |
| 20260503013949 | 12 | 277 | 16.1 | 19.3 | 0.00 | 0.00 | 0.00 | 8 | 1012.3 |
| 20260503013821 | 12 | 277 | 16.1 | 19.3 | 0.00 | 0.00 | 0.00 | 88 | 1012.5 |
| 20260503013230 | 12 | 273 | 16.1 | 19.3 | 0.00 | 0.00 | 0.00 | 8 | 1012.4 |
| 20260503013221 | 12 | 278 | 16.1 | 19.3 | 0.00 | 0.00 | 0.00 | 88 | 1012.5 |
| 20260503012949 | 12 | 273 | 16.1 | 19.3 | 0.00 | 0.00 | 0.00 | 8 | 1012.4 |
| 20260503012619 | 12 | 272 | 16.1 | 19.3 | 0.00 | 0.00 | 0.00 | 88 | 1012.5 |
| 20260503012019 | 12 | 273 | 17.7 | 20.9 | 0.00 | 0.00 | 0.00 | 87 | 1012.5 |
| 20260503011949 | 12 | 272 | 16.1 | 17.7 | 0.00 | 0.00 | 0.00 | 8 | 1012.4 |
| 20260503011419 | 12 | 278 | 17.7 | 20.9 | 0.00 | 0.00 | 0.00 | 87 | 1012.6 |
| 20260503010949 | 12 | 273 | 14.5 | 17.7 | 0.00 | 0.00 | 0.00 | 8 | 1012.5 |
| 20260503010819 | 12 | 274 | 14.5 | 17.7 | 0.00 | 0.00 | 0.00 | 87 | 1012.6 |
| 20260503010219 | 12 | 275 | 16.1 | 19.3 | 0.00 | 0.00 | 0.00 | 87 | 1012.6 |
| 20260503005949 | 12 | 278 | 16.1 | 19.3 | 0.00 | 0.00 | 0.00 | 8 | 1012.5 |
| 20260503005639 | 12 | 282 | 16.1 | 20.9 | 0.00 | 0.00 | 0.00 | 87 | 1012.6 |
| 20260503005040 | 12 | 285 | 17.7 | 19.3 | 0.00 | 0.00 | 0.00 | 87 | 1012.6 |
| 20260503004949 | 12 | 281 | 16.1 | 19.3 | 0.00 | 0.00 | 0.00 | 8 | 1012.5 |
| 20260503004419 | 12 | 282 | 16.1 | 19.3 | 0.00 | 0.00 | 0.00 | 87 | 1012.6 |
| 20260503003949 | 12 | 283 | 14.5 | 16.1 | 0.00 | 0.00 | 0.00 | 8 | 1012.5 |
| 20260503003819 | 12 | 283 | 14.5 | 17.7 | 0.00 | 0.00 | 0.00 | 88 | 1012.7 |
| 20260503003222 | 12 | 276 | 17.7 | 19.3 | 0.00 | 0.00 | 0.00 | 88 | 1012.7 |
| 20260503002949 | -17 | 277 | 16.1 | 16.1 | 0.00 | 0.00 | 0.00 | 100 | |
| 20260503002619 | 12 | 274 | 17.7 | 20.9 | 0.00 | 0.00 | 0.00 | 88 | 1012.7 |
| 20260503002039 | 12 | 273 | 17.7 | 22.5 | 0.00 | 0.00 | 0.00 | 88 | 1012.6 |
| 20260503001949 | 12 | 272 | 16.1 | 17.7 | 0.00 | 0.00 | 0.00 | 8 | 1012.6 |
| 20260503001420 | 12 | 271 | 17.7 | 20.9 | 0.00 | 0.00 | 0.00 | 88 | 1012.7 |
| 20260503000949 | 12 | 275 | 17.7 | 19.3 | 0.00 | 0.00 | 0.00 | 8 | 1012.7 |
| 20260503000840 | 12 | 275 | 17.7 | 20.9 | 0.00 | 0.00 | 0.00 | 88 | 1012.8 |
| 20260503000218 | 12 | 271 | 17.7 | 22.5 | 0.00 | 0.00 | 0.00 | 88 | 1012.7 |
| 20260502235949 | 12 | 264 | 16.1 | 19.3 | 0.00 | 0.00 | 0.00 | 8 | 1012.7 |
| 20260502235617 | 12 | 271 | 16.1 | 19.3 | 0.00 | 0.00 | 0.00 | 88 | 1012.8 |
| 20260502235018 | 12 | 266 | 16.1 | 19.3 | 0.00 | 0.00 | 0.00 | 88 | 1012.8 |
| 20260502234949 | 12 | 274 | 14.5 | 17.7 | 0.00 | 0.00 | 0.00 | 8 | 1012.7 |
| 20260502234420 | 12 | 277 | 16.1 | 20.9 | 0.00 | 0.00 | 0.00 | 88 | 1012.8 |
| 20260502233949 | 12 | 267 | 16.1 | 20.9 | 0.00 | 0.00 | 0.00 | 8 | 1012.8 |
| 20260502233820 | 12 | 268 | 17.7 | 22.5 | 0.00 | 0.00 | 0.00 | 89 | 1012.9 |
| 20260502233240 | 12 | 270 | 16.1 | 19.3 | 0.00 | 0.00 | 0.00 | 88 | 1012.8 |
| 20260502232949 | 12 | 260 | 16.1 | 19.3 | 0.00 | 0.00 | 0.00 | 8 | 1012.7 |
| 20260502232721 | 12 | 266 | 17.7 | 19.3 | 0.00 | 0.00 | 0.00 | 88 | 1012.9 |
| 20260502232018 | 12 | 261 | 16.1 | 19.3 | 0.00 | 0.00 | 0.00 | 88 | 1013.0 |
| 20260502231949 | 12 | 264 | 16.1 | 22.5 | 0.00 | 0.00 | 0.00 | 8 | 1012.9 |
| 20260502231419 | 12 | 254 | 14.5 | 20.9 | 0.00 | 0.00 | 0.00 | 89 | 1013.1 |
| 20260502230949 | 12 | 270 | 16.1 | 19.3 | 0.00 | 0.00 | 0.00 | 8 | 1013.0 |
| 20260502230845 | 12 | 270 | 17.7 | 20.9 | 0.00 | 0.00 | 0.00 | 88 | 1013.2 |
| 20260502230218 | 12 | 260 | 17.7 | 20.9 | 0.00 | 0.00 | 0.00 | 88 | 1013.0 |
| 20260502225949 | 12 | 265 | 14.5 | 16.1 | 0.00 | 0.00 | 0.00 | 8 | 1013.1 |
| 20260502225618 | 12 | 261 | 17.7 | 22.5 | 0.00 | 0.00 | 0.00 | 88 | 1013.2 |
| 20260502225018 | 12 | 257 | 14.5 | 17.7 | 0.00 | 0.00 | 0.00 | 88 | 1013.3 |
| 20260502224949 | 12 | 260 | 14.5 | 17.7 | 0.00 | 0.00 | 0.00 | 8 | 1013.2 |
| 20260502224421 | 12 | 264 | 14.5 | 16.1 | 0.00 | 0.00 | 0.00 | 88 | 1013.5 |
| 20260502223949 | 12 | 258 | 12.9 | 14.5 | 0.00 | 0.00 | 0.00 | 8 | 1013.2 |
| 20260502223821 | 12 | 258 | 12.9 | 14.5 | 0.00 | 0.00 | 0.00 | 87 | 1013.4 |
| 20260502223222 | 12 | 261 | 12.9 | 14.5 | 0.00 | 0.00 | 0.00 | 87 | 1013.5 |
| 20260502222949 | 11 | 257 | 11.3 | 12.9 | 0.00 | 0.00 | 0.00 | 8 | 1013.5 |
| 20260502222621 | 12 | 263 | 12.9 | 16.1 | 0.00 | 0.00 | 0.00 | 87 | 1013.6 |
| 20260502222021 | 12 | 262 | 12.9 | 14.5 | 0.00 | 0.00 | 0.00 | 88 | 1013.9 |
| 20260502221949 | 11 | 255 | 12.9 | 16.1 | 0.00 | 0.00 | 0.00 | 8 | 1013.8 |
| 20260502221420 | 12 | 263 | 12.9 | 14.5 | 0.00 | 0.00 | 0.00 | 88 | 1014.1 |
| 20260502220949 | 11 | 273 | 14.5 | 16.1 | 0.00 | 0.00 | 0.00 | 8 | 1014.0 |
| 20260502220820 | 12 | 273 | 14.5 | 16.1 | 0.00 | 0.00 | 0.00 | 89 | 1014.1 |
| 20260502220219 | 12 | 286 | 16.1 | 19.3 | 0.00 | 0.00 | 0.00 | 88 | 1014.1 |
| 20260502215949 | 11 | 284 | 14.5 | 19.3 | 0.00 | 0.00 | 0.00 | 8 | 1014.0 |
| 20260502215619 | 12 | 290 | 17.7 | 22.5 | 0.00 | 0.00 | 0.00 | 88 | 1014.2 |
| 20260502215020 | 12 | 287 | 17.7 | 24.1 | 0.00 | 0.00 | 0.00 | 87 | 1014.1 |
| 20260502214949 | 12 | 284 | 17.7 | 20.9 | 0.00 | 0.00 | 0.00 | 8 | 1013.9 |
| 20260502214421 | 12 | 287 | 17.7 | 20.9 | 0.00 | 0.00 | 0.00 | 87 | 1014.1 |
| 20260502213949 | 12 | 271 | 14.5 | 19.3 | 0.00 | 0.00 | 0.00 | 8 | 1013.8 |
| 20260502213820 | 12 | 272 | 16.1 | 20.9 | 0.00 | 0.00 | 0.00 | 87 | 1013.9 |
| 20260502213401 | 12 | 268 | 16.1 | 19.3 | 0.00 | 0.00 | 0.00 | 87 | 1013.9 |